Flag for Sweden Weather past 2 weeks in Uppsala, Sweden

Now
84 °F

Sunny.


Feels Like: 82 °F
Forecast: 65 / 80 °F
Wind: 13 mph from Southwest

Location: Stockholm / Arlanda

Current Time: Jul 2, 2015 at 2:52:02 PM

Latest Report: Jul 2, 2015 at 1:50 PM


Visibility: 10 mi

Pressure: 30.33 "Hg

Humidity: 29%

Dew point: 48 °F

Location of UppsalaLocation

Historic Weather in Uppsala — Graph

°F

Uppsala temperature yesterday

Maximum temperature yesterday: 77 °F (at 3:50 PM)
Minimum temperature yesterday: 48 °F (at 3:20 AM)
Average temperature yesterday: 65 °F

Past Weeks' High & Low Weather Summary

 TemperatureHumidityPressure
High81 °F (Jul 2, 11:20 AM)100% (Jun 18, 2:20 AM)30.33 "Hg (Jun 18, 2:20 AM)
Low45 °F (Jun 21, 4:20 AM)28% (Jun 17, 2:50 PM)29.56 "Hg (Jun 18, 10:20 AM)
Average59 °F78%29.86 "Hg
* Reported Jun 17 1:20 PM — Jul 2 1:20 PM, Uppsala, Weather by CustomWeather, © 2015

Note: Actual official high and low records may vary slightly from our data, if they occured in-between our weather recording intervals... More about our weather records

Advertising

Uppsala weather history for previous 24 hours

 ConditionsComfort  
Time TempWeatherWind HumidityBarometerVisibility
1:20 PM
Thu, Jul 2
81 °FSunny.15 mph34%30.33 "Hg10 mi
12:50 PM81 °FSunny.13 mph32%30.33 "Hg10 mi
12:20 PM81 °FSunny.14 mph32%30.33 "Hg10 mi
11:50 AM81 °FSunny.14 mph37%30.33 "Hg10 mi
11:20 AM81 °FSunny.10 mph42%30.33 "Hg10 mi
10:50 AM79 °FSunny.10 mph45%30.33 "Hg10 mi
10:20 AM79 °FSunny.8 mph51%30.33 "Hg10 mi
9:50 AM77 °FSunny.8 mph57%30.33 "Hg10 mi
9:20 AM75 °FSunny.7 mph57%30.33 "Hg10 mi
8:50 AM73 °FSunny.7 mph61%30.33 "Hg10 mi
8:20 AM72 °FSunny.6 mph65%30.33 "Hg10 mi
7:50 AM70 °FSunny.7 mph64%30.33 "Hg10 mi
7:20 AM70 °FSunny.8 mph64%30.33 "Hg10 mi
6:50 AM68 °FSunny.8 mph69%30.30 "Hg10 mi
6:20 AM66 °FSunny.8 mph73%30.30 "Hg10 mi
5:20 AM64 °FSunny.6 mph78%30.30 "Hg10 mi
4:50 AM63 °FSunny.7 mph83%30.30 "Hg10 mi
4:20 AM63 °FClear.5 mph77%30.30 "Hg10 mi
3:50 AM61 °FClear.5 mph83%30.30 "Hg10 mi
3:20 AM61 °FClear.5 mph83%30.30 "Hg10 mi
2:50 AM61 °FClear.6 mph83%30.30 "Hg10 mi
2:20 AM63 °FClear.7 mph77%30.27 "Hg10 mi
1:50 AM63 °FClear.7 mph77%30.27 "Hg10 mi
1:20 AM63 °FClear.7 mph77%30.27 "Hg10 mi
12:50 AM63 °FClear.7 mph77%30.27 "Hg10 mi
12:20 AM64 °FClear.7 mph73%30.27 "Hg10 mi
11:50 PM
Wed, Jul 1
64 °FClear.8 mph73%30.27 "Hg10 mi
11:20 PM64 °FClear.7 mph73%30.27 "Hg10 mi
10:50 PM64 °FSunny.8 mph73%30.24 "Hg10 mi
10:20 PM66 °FSunny.9 mph68%30.24 "Hg10 mi
9:50 PM68 °FSunny.12 mph69%30.24 "Hg10 mi
9:20 PM70 °FSunny.10 mph64%30.24 "Hg10 mi
8:50 PM72 °FSunny.9 mph61%30.24 "Hg10 mi
8:20 PM73 °FSunny.10 mph57%30.24 "Hg10 mi
7:50 PM75 °FSunny.10 mph50%30.21 "Hg10 mi
7:20 PM75 °FSunny.12 mph50%30.21 "Hg10 mi
6:50 PM75 °FSunny.9 mph50%30.21 "Hg10 mi
6:20 PM77 °FPassing clouds.10 mph42%30.21 "HgN/A
5:50 PM75 °FPassing clouds.8 mph41%30.21 "HgN/A
5:20 PM77 °FSunny.8 mph39%30.21 "Hg10 mi
4:50 PM75 °FSunny.10 mph44%30.21 "Hg10 mi
4:20 PM77 °FPassing clouds.9 mph42%30.21 "HgN/A
3:50 PM77 °FPassing clouds.7 mph39%30.24 "HgN/A
3:20 PM75 °FPassing clouds.6 mph39%30.24 "HgN/A
2:50 PM73 °FPassing clouds.7 mph47%30.24 "HgN/A
2:20 PM73 °FPassing clouds.7 mph41%30.24 "HgN/A
Weather by CustomWeather, © 2015

See weather overviewHow to use our weather pages